Amritsar, India

10:18 PM IST on April 22, 2018 (GMT +0530)
Amritsar

Weather History for VIAR - March, 2013

Change the Weather History Date:

Monday, March 11, 2013

  Actual Average Record
Temperature  
Mean Temperature 69 °F -  
Max Temperature 82 °F 74 °F 86 °F (2008)
Min Temperature 56 °F 52 °F 42 °F (2017)
Cooling Degree Days 4    
Growing Degree Days 19 (Base 50)    
Moisture  
Dew Point 61 °F    
Average Humidity 72    
Maximum Humidity 100    
Minimum Humidity 48    
Precipitation  
Precipitation 0.00 in - - ()
Sea Level Pressure  
Sea Level Pressure 29.89 in    
Wind  
Wind Speed 1 mph ()    
Max Wind Speed 7 mph    
Max Gust Speed -    
Visibility 1.9 miles    
Events Rain    
Averages and records for this station are not official NWS values.
T = Trace of Precipitation, MM = Missing Value Source: Averaged Metar Reports

Daily Weather History Graph

Daily Weather History Graph

Search for Another Location

Airport or City:

Astronomy

Mar. 11, 2013 Rise Set
Actual Time 6:45 AM IST 6:35 PM IST
Civil Twilight 6:21 AM IST 7:00 PM IST
Nautical Twilight 5:53 AM IST 7:28 PM IST
Astronomical Twilight 5:25 AM IST 7:56 PM IST
Moon 6:04 AM IST (3/11) 6:16 PM IST (3/11)
Length of Visible Light 12h 38m
Length of Day
11h 49m
Waning Crescent, 0% of the Moon is Illuminated
Mar 11
Waning Crescent
Mar 12
New
Mar 19
First Quarter
Mar 27
Full
Apr 3
Last Quarter

Hourly Weather History & Observations

Time (IST) Temp. Heat Index Dew Point Humidity Pressure Visibility Wind Dir Wind Speed Gust Speed Precip Events Conditions
12:00 AM 62.6 °F - 60.8 °F 94% 29.89 in 1.2 mi Calm Calm - N/A   Mist
12:30 AM 64.4 °F - 60.8 °F 88% 29.89 in 1.2 mi Calm Calm - N/A   Mist
1:00 AM 68.0 °F - 60.8 °F 78% 29.89 in 1.2 mi Calm Calm - N/A   Mist
1:30 AM 66.2 °F - 60.8 °F 83% 29.86 in 1.2 mi Calm Calm - N/A   Mist
2:00 AM 64.4 °F - 60.8 °F 88% 29.86 in 1.2 mi Calm Calm - N/A   Mist
2:30 AM 62 °F - 62 °F 99% 29.87 in 1 mi Calm Calm - -   Mist
2:30 AM 62.6 °F - 60.8 °F 94% 29.86 in 1.2 mi Calm Calm - N/A   Mist
3:00 AM 62.6 °F - 59.0 °F 88% 29.86 in 1.0 mi Calm Calm - N/A   Mist
5:30 AM 58 °F - 58 °F 100% 29.87 in 1 mi Calm Calm - -   Mist
6:00 AM 59.0 °F - 57.2 °F 94% 29.86 in 1.0 mi Calm Calm - N/A   Mist
6:30 AM 59.0 °F - 57.2 °F 94% 29.86 in 1.2 mi Calm Calm - N/A   Mist
7:30 AM 59.0 °F - 59.0 °F 100% 29.89 in 1.0 mi Calm Calm - N/A   Scattered Clouds
8:00 AM 60.8 °F - 59.0 °F 94% 29.89 in 1.6 mi Calm Calm - N/A   Scattered Clouds
8:30 AM 64 °F - 60 °F 82% 29.90 in 1 mi Calm Calm - -   Mist
8:30 AM 64.4 °F - 59.0 °F 83% 29.92 in 1.9 mi Calm Calm - N/A   Scattered Clouds
9:00 AM 64.4 °F - 60.8 °F 88% 29.92 in 2.5 mi Calm Calm - N/A   Scattered Clouds
9:30 AM 68.0 °F - 60.8 °F 78% 29.92 in 3.1 mi Calm Calm - N/A   Scattered Clouds
10:00 AM 69.8 °F - 62.6 °F 78% 29.92 in 2.5 mi Calm Calm - N/A   Scattered Clouds
10:30 AM 73.4 °F - 64.4 °F 73% 29.95 in 1.9 mi Calm Calm - N/A   Haze
11:00 AM 75.2 °F - 64.4 °F 69% 29.92 in 1.9 mi Calm Calm - N/A   Haze
11:30 AM 78 °F - 66 °F 58% 29.91 in 1 mi Calm Calm - -   Haze
11:30 AM 77.0 °F - 66.2 °F 69% 29.95 in 2.2 mi Calm Calm - N/A   Haze
12:00 PM 78.8 °F - 64.4 °F 61% 29.92 in 2.2 mi Calm Calm - N/A   Haze
12:30 PM 80.6 °F 82.3 °F 64.4 °F 58% 29.92 in 2.2 mi Calm Calm - N/A   Haze
1:00 PM 80.6 °F 81.8 °F 62.6 °F 54% 29.92 in 2.5 mi Calm Calm - N/A   Haze
1:30 PM 82.4 °F 83.9 °F 64.4 °F 54% 29.92 in 2.5 mi Calm Calm - N/A   Haze
2:00 PM 82.4 °F 83.9 °F 64.4 °F 54% 29.89 in 2.5 mi WNW 3.5 mph - N/A   Haze
2:30 PM 81 °F - 64 °F 48% 29.86 in 2 mi WNW 5.8 mph - -   Haze
2:30 PM 80.6 °F 82.3 °F 64.4 °F 58% 29.89 in 2.5 mi WNW 5.8 mph - N/A   Haze
3:00 PM 82.4 °F 83.9 °F 64.4 °F 54% 29.89 in 2.5 mi NW 6.9 mph - N/A   Haze
3:30 PM 82.4 °F 84.6 °F 66.2 °F 58% 29.86 in 2.5 mi Variable 6.9 mph - N/A   Haze
4:00 PM 80.6 °F 82.3 °F 64.4 °F 58% 29.86 in 2.5 mi Variable 4.6 mph - N/A   Haze
4:30 PM 80.6 °F 81.8 °F 62.6 °F 54% 29.86 in 2.5 mi Variable 4.6 mph - N/A   Haze
5:00 PM 80.6 °F 81.8 °F 62.6 °F 54% 29.86 in 2.5 mi North 4.6 mph - N/A   Haze
5:30 PM 78.8 °F - 62.6 °F 57% 29.86 in 2.5 mi Variable 5.8 mph - N/A   Haze
6:00 PM 77.0 °F - 60.8 °F 57% 29.86 in 2.5 mi Variable 1.2 mph - N/A   Haze
6:30 PM 77.0 °F - 60.8 °F 57% 29.86 in 2.5 mi Calm Calm - N/A   Haze
7:00 PM 75.2 °F - 60.8 °F 61% 29.86 in 2.5 mi Calm Calm - N/A   Haze
7:30 PM 73.4 °F - 59.0 °F 61% 29.89 in 2.5 mi Calm Calm - N/A   Haze
8:00 PM 73.4 °F - 59.0 °F 61% 29.89 in 2.2 mi Calm Calm - N/A   Haze
8:30 PM 70 °F - 59 °F 60% 29.89 in 1 mi Calm Calm - - Rain Light Drizzle
8:30 PM 69.8 °F - 59.0 °F 68% 29.89 in 2.2 mi Calm Calm - N/A   Haze
9:00 PM 69.8 °F - 59.0 °F 68% 29.89 in 2.2 mi Calm Calm - N/A   Haze
11:00 PM 66.2 °F - 59.0 °F 78% 29.92 in 1.2 mi Calm Calm - N/A   Scattered Clouds
11:30 PM 63 °F - 59 °F 81% 29.93 in 1 mi Calm Calm - -   Haze
11:30 PM 62.6 °F - 59.0 °F 88% 29.92 in 1.2 mi Calm Calm - N/A   Scattered Clouds